Simultaneous Nadir Overpasses (SNOs) Predictions

Prediction of SNOs between METOP-C and LANDSAT-8 Satellite Orbit:

Table of predicted SNOs for the next 14.0 days since TLE Epoch: 3/8/2025
Index Date (METOP-C) Time (METOP-C) Lat,Lon (METOP-C) SZA (METOP-C ) Date (LANDSAT-8) Time (LANDSAT-8) Lat,Lon (LANDSAT-8) SZA (LANDSAT-8 ) Distance(km) Time Diff (sec)
1 03/08/2025 06:10:00 81.11, 126.59 87.57 03/08/2025 06:10:57 81.11, 126.60 87.59 0.44 57
2 03/08/2025 07:00:38 -81.15, -64.89 92.31 03/08/2025 07:00:22 -81.15, -65.08 92.33 3.23 16
3 03/11/2025 01:44:23 81.11,-166.97 86.49 03/11/2025 01:45:10 81.12,-166.84 86.52 2.14 47
4 03/11/2025 02:35:02 -81.14, 1.22 93.42 03/11/2025 02:34:36 -81.14, 1.13 93.44 1.59 26
5 03/13/2025 21:18:46 81.13,-100.22 85.45 03/13/2025 21:19:23 81.13,-100.15 85.47 1.36 37
6 03/13/2025 22:09:25 -81.16, 68.00 94.46 03/13/2025 22:08:49 -81.16, 67.84 94.49 2.74 36
7 03/16/2025 16:53:09 81.14, -33.55 84.39 03/16/2025 16:53:36 81.13, -33.70 84.39 2.47 27
8 03/16/2025 17:43:49 -81.15, 134.33 95.56 03/16/2025 17:43:02 -81.16, 134.32 95.58 0.40 47
9 03/19/2025 12:27:31 81.14, 33.04 83.33 03/19/2025 12:27:47 81.14, 32.89 83.32 2.48 16



Historial Predications of SNOs between METOP-C and LANDSAT-8
